KC4YLE Weather Reports


time (UTC)temp
F
wind
direction
speed
knots
gust
knots
rain 1hr
in
rain 24hr
in
rain mn
in
humidity
%
barometer
mb
20260505094023 53 210 0.0 0.0 0.00 0.00 0.00 78 1015.0
20260505093527 53 210 0.0 0.0 0.00 0.00 0.00 78 1014.8
20260505093029 53 210 0.0 0.0 0.00 0.00 0.00 78 1014.7
20260505092532 54 210 0.0 0.0 0.00 0.00 0.00 78 1014.8
20260505092056 54 210 0.0 0.0 0.00 0.00 0.00 78 1014.7
20260505091557 54 210 0.0 0.0 0.00 0.00 0.00 77 1014.7
20260505091025 54 210 0.0 0.0 0.00 0.00 0.00 77 1014.6
20260505090528 54 210 0.0 0.0 0.00 0.00 0.00 77 1014.6
20260505090033 55 210 0.0 0.0 0.00 0.00 0.00 77 1014.5
20260505085536 55 210 0.0 0.0 0.00 0.00 0.00 76 1014.5
20260505085040 55 210 0.0 0.0 0.00 0.00 0.00 76 1014.5
20260505084523 55 210 0.0 0.0 0.00 0.00 0.00 76 1014.5
20260505084046 55 210 0.0 0.0 0.00 0.00 0.00 76 1014.5
20260505083549 56 210 0.0 0.0 0.00 0.00 0.00 75 1014.4
20260505083033 56 210 0.0 0.0 0.00 0.00 0.00 75 1014.4
20260505082536 56 210 0.0 0.9 0.00 0.00 0.00 75 1014.4
20260505082100 56 210 0.0 0.9 0.00 0.00 0.00 75 1014.4
20260505081603 56 210 0.0 0.9 0.00 0.00 0.00 74 1014.4
20260505081026 56 211 0.0 0.9 0.00 0.00 0.00 74 1014.4
20260505080530 57 211 0.0 0.9 0.00 0.00 0.00 74 1014.4
20260505080035 57 211 0.0 3.5 0.00 0.00 0.00 74 1014.3
20260505075542 57 218 0.0 3.5 0.00 0.00 0.00 73 1014.3
20260505075025 57 230 0.0 0.9 0.00 0.00 0.00 73 1014.2
20260505074529 57 230 0.0 0.9 0.00 0.00 0.00 73 1014.2
20260505074032 57 230 0.0 0.9 0.00 0.00 0.00 72 1014.2
20260505073536 57 230 0.0 2.6 0.00 0.00 0.00 72 1014.2
20260505073040 58 230 0.9 2.6 0.00 0.00 0.00 72 1014.2
20260505072524 58 176 0.0 4.3 0.00 0.00 0.00 71 1014.2
20260505072027 58 215 0.9 4.3 0.00 0.00 0.00 71 1014.1
20260505071531 58 265 0.0 3.5 0.00 0.00 0.00 71 1014.1
20260505071036 58 259 0.0 3.5 0.00 0.00 0.00 70 1014.1
20260505070524 58 231 0.0 2.6 0.00 0.00 0.00 70 1014.0
20260505070046 59 229 0.0 0.9 0.00 0.00 0.00 69 1013.9
20260505065548 59 229 0.0 0.9 0.00 0.00 0.00 70 1013.9
20260505065032 59 229 0.0 1.7 0.00 0.00 0.00 69 1014.0
20260505064535 59 229 0.0 2.6 0.00 0.00 0.00 69 1014.0
20260505064039 59 229 0.0 2.6 0.00 0.00 0.00 69 1014.0
20260505063524 59 297 0.0 4.3 0.00 0.00 0.00 69 1013.9
20260505063027 59 286 0.0 4.3 0.00 0.00 0.00 69 1013.9
20260505062531 59 213 0.0 2.6 0.00 0.00 0.00 69 1013.9
20260505062033 59 225 0.0 1.7 0.00 0.00 0.00 68 1013.9
20260505061557 59 225 0.0 0.9 0.00 0.00 0.00 68 1013.9
20260505061037 59 225 0.0 2.6 0.00 0.00 0.00 68 1013.9
20260505060540 59 236 0.0 2.6 0.00 0.00 0.00 67 1013.9
20260505060045 60 293 0.0 3.5 0.00 0.00 0.00 67 1013.9
20260505055549 60 293 0.0 3.5 0.00 0.00 0.00 67 1014.0
20260505055033 60 288 0.0 2.6 0.00 0.00 0.00 66 1013.9
20260505054558 60 221 0.0 4.3 0.00 0.00 0.00 66 1013.9
20260505054025 60 259 0.9 4.3 0.00 0.00 0.00 65 1013.9
20260505053528 60 144 0.0 0.9 0.00 0.00 0.00 65 1013.9
20260505053033 61 145 0.0 2.6 0.00 0.00 0.00 64 1013.9
20260505052538 61 143 0.0 2.6 0.00 0.00 0.00 64 1013.9
20260505052043 61 150 0.0 1.7 0.00 0.00 0.00 64 1014.0
20260505051526 61 134 0.0 4.3 0.00 0.00 0.00 64 1014.1
20260505051051 61 133 0.9 4.3 0.00 0.00 0.00 64 1014.2
20260505050535 61 250 0.9 7.0 0.00 0.00 0.00 63 1014.2
20260505041535 62 267 0.9 4.3 0.00 0.00 0.00 58 1014.2
20260505041039 62 232 0.0 3.5 0.00 0.00 0.00 57 1014.1
20260505040542 62 265 0.9 5.2 0.00 0.00 0.00 56 1014.1
20260505040026 62 168 0.9 5.2 0.00 0.00 0.00 56 1014.1
20260505035530 62 184 0.0 2.6 0.00 0.00 0.00 56 1014.1
20260505035034 62 207 0.9 3.5 0.00 0.00 0.00 56 1014.2
20260505034542 62 212 0.0 3.5 0.00 0.00 0.00 56 1014.2
20260505034026 62 223 0.9 4.3 0.00 0.00 0.00 56 1014.2
20260505033551 62 213 0.9 4.3 0.00 0.00 0.00 56 1014.0
20260505033055 62 186 0.0 5.2 0.00 0.00 0.00 55 1014.0
20260505032539 62 140 0.9 5.2 0.00 0.00 0.00 56 1014.1
20260505032043 62 191 0.0 7.8 0.00 0.00 0.00 56 1014.1
20260505031527 62 188 0.0 2.6 0.00 0.00 0.00 56 1014.0
20260505031031 62 238 0.0 2.6 0.00 0.00 0.00 55 1014.1
20260505030535 62 262 0.0 3.5 0.00 0.00 0.00 56 1014.0
20260505030039 62 162 0.9 4.3 0.00 0.00 0.00 56 1014.1
20260505025543 62 192 0.9 4.3 0.00 0.00 0.00 57 1014.0
20260505025026 62 190 0.0 7.0 0.00 0.00 0.00 57 1014.1
20260505024535 61 190 0.9 7.0 0.00 0.00 0.00 57 1014.0
20260505024039 61 226 0.0 6.1 0.00 0.00 0.00 56 1014.0
20260505023523 61 153 0.0 2.6 0.00 0.00 0.00 57 1014.0
20260505023028 61 323 0.0 5.2 0.00 0.00 0.00 57 1013.9
20260505022533 61 174 0.0 5.2 0.00 0.00 0.00 58 1013.9
20260505022037 61 221 0.0 3.5 0.00 0.00 0.00 58 1013.9
20260505021541 60 202 0.0 2.6 0.00 0.00 0.00 58 1013.9
20260505021025 60 198 0.0 2.6 0.00 0.00 0.00 59 1013.9
20260505020529 60 212 0.0 3.5 0.00 0.00 0.00 60 1013.8
20260505020033 60 211 0.9 3.5 0.00 0.00 0.00 61 1013.7
20260505015558 61 219 0.0 2.6 0.00 0.00 0.00 62 1013.7
20260505015026 61 229 0.0 1.7 0.00 0.00 0.00 63 1013.8
20260505014551 61 234 0.0 1.7 0.00 0.00 0.00 64 1013.7
20260505014054 61 102 0.0 0.0 0.00 0.00 0.00 64 1013.6
20260505013537 62 102 0.0 0.0 0.00 0.00 0.00 62 1013.5
20260505013041 62 102 0.0 0.0 0.00 0.00 0.00 61 1013.4
20260505012526 62 102 0.0 0.0 0.00 0.00 0.00 60 1013.2
20260505012030 63 102 0.0 0.0 0.00 0.00 0.00 59 1013.2
20260505011553 63 102 0.0 0.0 0.00 0.00 0.00 58 1013.1
20260505011036 64 102 0.0 0.0 0.00 0.00 0.00 58 1013.2
20260505010540 65 102 0.0 0.0 0.00 0.00 0.00 56 1013.1
20260505010024 65 102 0.0 0.0 0.00 0.00 0.00 55 1013.1
20260505005529 66 102 0.0 0.0 0.00 0.00 0.00 54 1013.1
20260505005033 66 102 0.0 0.0 0.00 0.00 0.00 54 1013.0
20260505004537 67 102 0.0 0.0 0.00 0.00 0.00 52 1012.9
20260505004025 67 102 0.0 0.0 0.00 0.00 0.00 51 1012.9
20260505003530 68 102 0.0 0.0 0.00 0.00 0.00 50 1012.8
20260505003035 68 102 0.0 0.0 0.00 0.00 0.00 49 1012.8
20260505002539 69 102 0.0 0.0 0.00 0.00 0.00 48 1012.7
20260505002043 70 102 0.0 0.9 0.00 0.00 0.00 47 1012.7
20260505001526 70 102 0.0 0.9 0.00 0.00 0.00 46 1012.7
20260505001050 71 102 0.0 0.0 0.00 0.00 0.00 46 1012.7
20260505000534 71 102 0.0 0.0 0.00 0.00 0.00 46 1012.6
20260505000038 72 216 0.0 0.0 0.00 0.00 0.00 46 1012.6
20260504235543 72 216 0.0 0.0 0.00 0.00 0.00 45 1012.6
20260504235027 72 216 0.0 0.0 0.00 0.00 0.00 45 1012.5
20260504234536 73 216 0.0 0.9 0.00 0.00 0.00 44 1012.4
20260504234041 73 216 0.0 0.0 0.00 0.00 0.00 44 1012.4
20260504233523 73 216 0.0 0.9 0.00 0.00 0.00 44 1012.3
20260504233028 73 216 0.0 0.0 0.00 0.00 0.00 43 1012.3
20260504232532 74 216 0.0 0.9 0.00 0.00 0.00 43 1012.3
20260504232036 74 216 0.0 3.5 0.00 0.00 0.00 42 1012.3
20260504231541 74 276 0.9 3.5 0.00 0.00 0.00 40 1012.4
20260504231025 74 30 0.9 3.5 0.00 0.00 0.00 40 1012.3
20260504230530 74 355 0.0 1.7 0.00 0.00 0.00 40 1012.3
20260504230033 75 355 0.0 4.3 0.00 0.00 0.00 40 1012.3
20260504225538 75 202 0.0 4.3 0.00 0.00 0.00 41 1012.3
20260504225046 75 159 0.0 3.5 0.00 0.00 0.00 39 1012.3
20260504224530 75 232 0.0 5.2 0.00 0.00 0.00 39 1012.3
20260504224035 75 111 0.9 6.1 0.00 0.00 0.00 39 1012.3
20260504223539 76 126 0.0 4.3 0.00 0.00 0.00 38 1012.3
20260504223103 76 256 0.0 3.5 0.00 0.00 0.00 38 1012.3
20260504222526 76 126 0.9 4.3 0.00 0.00 0.00 38 1012.3
20260504222031 76 261 0.0 5.2 0.00 0.00 0.00 38 1012.3
20260504221554 76 273 0.9 3.5 0.00 0.00 0.00 37 1012.3
20260504221037 76 220 0.0 7.8 0.00 0.00 0.00 37 1012.3
20260504220602 76 257 0.9 7.8 0.00 0.00 0.00 39 1012.3
20260504220026 77 324 0.9 7.0 0.00 0.00 0.00 37 1012.5
20260504215531 77 163 1.7 7.0 0.00 0.00 0.00 36 1012.6
20260504215035 77 346 0.0 5.2 0.00 0.00 0.00 38 1012.4
20260504214523 77 168 0.9 7.0 0.00 0.00 0.00 37 1012.4
20260504214028 78 128 2.6 7.0 0.00 0.00 0.00 35 1012.4
20260504213533 78 128 0.9 6.1 0.00 0.00 0.00 37 1012.4
20260504213037 78 165 0.9 5.2 0.00 0.00 0.00 36 1012.5
20260504212541 79 239 0.0 4.3 0.00 0.00 0.00 36 1012.4
20260504212024 79 312 0.9 4.3 0.00 0.00 0.00 35 1012.3
20260504211547 80 261 0.9 3.5 0.00 0.00 0.00 34 1012.4
20260504211031 80 304 0.0 7.8 0.00 0.00 0.00 35 1012.3
20260504210536 80 225 0.9 7.8 0.00 0.00 0.00 36 1012.3
20260504210040 80 111 0.9 5.2 0.00 0.00 0.00 36 1012.4
20260504205523 80 240 0.0 5.2 0.00 0.00 0.00 36 1012.4
20260504205029 80 290 0.0 7.0 0.00 0.00 0.00 34 1012.5
20260504204537 81 169 1.7 7.0 0.00 0.00 0.00 34 1012.6
20260504204041 81 110 0.0 3.5 0.00 0.00 0.00 35 1012.6
20260504203545 81 121 0.9 3.5 0.00 0.00 0.00 36 1012.6
20260504203028 81 302 0.9 6.1 0.00 0.00 0.00 34 1012.6
20260504202533 81 319 1.7 6.1 0.00 0.00 0.00 33 1012.7
20260504202037 81 205 0.9 5.2 0.00 0.00 0.00 34 1012.6
20260504201541 81 138 0.9 5.2 0.00 0.00 0.00 35 1012.7
20260504201025 81 155 0.9 2.6 0.00 0.00 0.00 34 1012.7
20260504200529 81 128 0.0 4.3 0.00 0.00 0.00 33 1012.8
20260504200034 81 112 0.9 4.3 0.00 0.00 0.00 36 1012.9
20260504195538 81 80 0.0 4.3 0.00 0.00 0.00 33 1012.8
20260504195027 82 286 0.9 4.3 0.00 0.00 0.00 34 1012.8
20260504194531 81 81 0.9 6.1 0.00 0.00 0.00 34 1013.0
20260504194032 81 296 1.7 6.1 0.00 0.00 0.00 33 1013.1
20260504193537 81 139 1.7 6.1 0.00 0.00 0.00 34 1013.1
20260504193041 81 306 0.9 4.3 0.00 0.00 0.00 35 1013.3
20260504192525 81 83 1.7 4.3 0.00 0.00 0.00 32 1013.3
20260504192028 81 260 0.9 4.3 0.00 0.00 0.00 34 1013.5
20260504191533 81 239 0.0 3.5 0.00 0.00 0.00 34 1013.5
20260504191056 80 140 0.9 5.2 0.00 0.00 0.00 32 1013.6
20260504190538 80 126 0.9 6.1 0.00 0.00 0.00 32 1013.7
20260504190042 81 201 0.9 6.1 0.00 0.00 0.00 32 1013.8
20260504185532 80 302 0.9 5.2 0.00 0.00 0.00 31 1013.8
20260504185035 80 184 1.7 7.0 0.00 0.00 0.00 33 1013.8
20260504184543 80 289 2.6 7.0 0.00 0.00 0.00 30 1013.8
20260504184027 80 309 1.7 7.8 0.00 0.00 0.00 30 1013.7
20260504183531 80 180 1.7 7.8 0.00 0.00 0.00 30 1013.8
20260504183035 80 141 0.9 6.1 0.00 0.00 0.00 32 1013.8
20260504182540 79 304 1.7 6.1 0.00 0.00 0.00 31 1013.9
20260504182023 80 157 0.0 4.3 0.00 0.00 0.00 32 1014.0
20260504181529 79 250 0.9 5.2 0.00 0.00 0.00 32 1014.1
20260504181033 79 123 0.9 5.2 0.00 0.00 0.00 35 1014.2
20260504180537 79 215 0.0 5.2 0.00 0.00 0.00 35 1014.3
20260504180042 78 193 0.9 3.5 0.00 0.00 0.00 32 1014.3
20260504175531 78 256 0.9 4.3 0.00 0.00 0.00 35 1014.2
20260504175034 78 111 0.9 6.1 0.00 0.00 0.00 32 1014.3
20260504174600 78 130 1.7 6.1 0.00 0.00 0.00 33 1014.3
20260504174042 78 138 1.7 3.5 0.00 0.00 0.00 34 1014.3
20260504173546 78 142 0.0 3.5 0.00 0.00 0.00 31 1014.4
20260504173030 78 136 0.9 2.6 0.00 0.00 0.00 36 1014.5
20260504172533 78 333 0.9 5.2 0.00 0.00 0.00 35 1014.6
20260504172039 78 192 0.9 5.2 0.00 0.00 0.00 34 1014.6
20260504171523 78 147 1.7 4.3 0.00 0.00 0.00 34 1014.6
20260504171027 78 221 0.9 5.2 0.00 0.00 0.00 36 1014.6
20260504170532 78 17 1.7 5.2 0.00 0.00 0.00 35 1014.8
20260504151028 74 327 0.9 3.5 0.00 0.00 0.00 39 1016.1
20260504150533 74 91 0.0 1.7 0.00 0.00 0.00 43 1016.1
20260504141037 69 140 0.0 3.5 0.00 0.00 0.00 51 1016.0
20260504140541 69 306 0.0 3.5 0.00 0.00 0.00 54 1016.0
20260504130532 56 163 0.0 1.7 0.00 0.00 0.00 83 1016.1
20260504110536 39 305 0.0 0.0 0.00 0.00 0.00 86 1016.6
20260504100526 39 305 0.0 0.0 0.00 0.00 0.00 84 1016.3